Date,TemperatureHighF,TemperatureAvgF,TemperatureLowF,DewpointHighF,DewpointAvgF,DewpointLowF,HumidityHigh,HumidityAvg,HumidityLow,PressureMaxIn,PressureMinIn,WindSpeedMaxMPH,WindSpeedAvgMPH,GustSpeedMaxMPH,PrecipitationSumIn
2013-6-1,80.6,71.4,62.0,67.5,63.3,58.5,91,76,60,29.89,29.77,13,5,14,0.00
2013-6-2,72.2,62.8,57.3,65.7,59.6,56.2,99,90,77,29.78,29.67,21,8,27,0.06
2013-6-3,68.5,58.9,54.9,67.2,58.2,54.9,100,97,89,29.79,29.68,14,6,19,0.00
2013-6-4,63.8,57.2,48.8,56.9,46.0,40.4,96,68,45,29.99,29.74,16,4,22,0.00
2013-6-5,69.0,56.6,46.3,50.0,44.7,39.0,85,66,34,30.14,29.99,14,4,19,0.00
2013-6-6,67.4,56.2,46.6,52.6,45.9,38.7,98,71,36,30.20,30.13,13,4,15,0.00
2013-6-7,62.1,55.0,51.1,52.4,49.2,40.2,99,83,45,30.15,29.98,9,4,14,0.31
2013-6-8,61.1,55.3,51.7,57.9,54.2,51.4,100,96,85,29.98,29.63,15,6,27,1.37
2013-6-9,61.4,55.1,50.2,56.7,53.4,49.7,100,95,79,30.12,29.94,16,4,18,0.10
2013-6-10,68.8,57.9,50.5,57.1,53.6,50.3,100,87,62,30.20,30.03,12,4,14,0.00
2013-6-11,53.7,52.9,51.5,53.7,52.7,51.3,100,99,98,30.04,29.51,16,5,23,0.71
2013-6-12,56.4,53.8,51.5,56.2,53.5,51.5,100,99,94,29.70,29.46,19,6,23,0.80
2013-6-13,68.6,57.1,50.1,56.4,52.0,49.8,100,84,57,29.76,29.70,16,5,18,0.07
2013-6-14,63.9,56.6,50.9,57.7,52.2,46.2,96,86,67,29.72,29.64,16,4,16,0.01
2013-6-15,73.6,61.0,48.3,51.8,47.3,42.1,99,65,35,29.84,29.68,15,4,19,0.01
2013-6-16,73.0,59.9,52.4,55.5,51.1,45.1,96,74,48,29.87,29.69,18,5,22,0.04
2013-6-17,76.7,61.6,53.3,61.7,57.8,52.9,100,89,52,29.82,29.69,16,4,19,0.37
2013-6-18,68.4,60.3,53.2,57.1,53.7,48.3,100,80,51,29.93,29.81,10,2,13,0.00
2013-6-19,71.9,61.5,50.4,53.0,47.1,41.7,92,62,37,30.10,29.89,18,5,20,0.00
2013-6-20,73.9,61.4,51.3,54.6,49.3,44.0,86,67,38,30.22,30.10,14,5,18,0.00
2013-6-21,74.3,63.7,54.2,62.6,56.4,51.9,99,79,50,30.19,30.12,12,2,13,0.00
2013-6-22,73.0,64.8,59.0,64.5,59.3,53.8,96,83,69,30.17,30.08,8,2,13,0.00
2013-6-23,70.6,62.3,58.0,67.7,60.8,57.2,100,95,83,30.11,29.93,13,4,15,0.33
2013-6-24,84.1,73.7,64.3,73.7,68.6,64.3,100,85,63,29.92,29.77,15,2,16,0.01
2013-6-25,84.1,73.6,65.7,71.9,66.3,60.7,98,79,61,29.80,29.67,12,4,16,0.09
2013-6-26,71.0,65.0,59.1,69.8,64.4,58.2,100,98,92,29.86,29.66,9,2,11,0.07
2013-6-27,59.5,56.5,53.9,58.6,56.2,53.9,100,99,93,29.88,29.83,10,4,14,0.01
2013-6-28,60.9,57.9,55.3,60.9,57.9,55.3,100,100,100,29.86,29.58,20,7,25,1.01
2013-6-29,63.1,59.7,58.4,63.1,59.7,58.4,100,100,100,29.69,29.56,19,7,23,0.05
2013-6-30,68.2,61.8,58.7,68.2,61.7,58.7,100,100,95,29.91,29.69,19,7,19,0.00